DECAYED

FENGYUN 1C DEB, 30522 (Decayed)

Orbit data source: Space-Track

FENGYUN 1C DEB, 30522 was space debris in SSO originally from a launch on Mon, 10 May 1999 UTC launched from the Taiyaun Space Center, China (TSC). Fengyun 1C debris stems from the Chinese weather satellite Fengyun-1C, which was intentionally destroyed by a Chinese anti-satellite missile in 2007. This event dramatically increased the amount of space debris, with thousands of trackable fragments posing hazards to satellites and human spaceflight. The Fengyun 1C debris cloud has become a focal point in discussions about space sustainability and the need for international regulations to prevent the creation of new debris.

Not visible in the next 10 days
Identifier
30522, 1999-025AJL
Orbit
Decayed
Country
Flag of CNCN / PRC
Related business
Manufacturer
Unknown
Mission
Decayed spacecraft
Bus & Motor
Unknown
Mass
Unknown
Launch date (UTC)
1999-05-10 (27 years ago)
Launch vehicle
Unknown
Launch site
Taiyaun Space Center, China (TSC)
Object type
Payload
Rocket body
Debris
Shape & HBR
Unknown shape, 0.1 m
Radar Cross Section
Medium (>0.1 m² and <1 m²)

Expand to show TLE details & history
Last TLE update: 2 years ago

TLE from 2 years ago
0 FENGYUN 1C DEB
1 30522U 99025AJL 25043.52914318  .01498376  00000-0  13216-1 0  9996
2 30522  99.3505 140.7800 0024899 310.7614  49.1478 15.65600689954174
Epoch: 2025-02-12T12:41Z
TLE epoch observation values (Epoch: 2025-02-12T12:41:57.970Z)
Latitude
-0.00005°
Longitude
167.47016°
Altitude
363.628 km
Speed
7.697 km/s
True Right ascension
09h 23m 07s
True Declination
0° 00' 00"
Sunlit
Object was in full shadow at epoch
Visualization orbit readout
Latitude
Unknown
Longitude
Unknown
Altitude
Unknown
Speed
Unknown
Apparent Right ascension
Unknown
Apparent Declination
Unknown
Sunlit
N/A
Visualization observer readout
Local Sidereal Time
07:23:33
Azimuth
Unknown
Elevation
Unknown
Doppler factor
Unknown
Orbital elements
Apogee altitude
385.311 km
Perigee altitude
351.714 km
Semi-major axis
6,746.65 km
Eccentricity
0.00249
Inclination
99.3505°
RAAN
140.78°
Arg. of periapsis
310.7614°
True anomaly
49.36406°
Mean anomaly
49.1478°
Eccentric anomaly
49.25588°
Mean motion
3.91662 °/min
Orbital period
91.92 mins
BSTAR
0.013216
Loading maneuver chart data...
Computing Atmospheric mass density...

Documentation

Showing up to 5 results
|